FW0839 Weather Reports


time (UTC)temp
C
wind
direction
speed
KPH
gust
KPH
rain 1hr
cm
rain 24hr
cm
rain mn
cm
humidity
%
barometer
mb
20260505041503 10 154 0.0 3.2 0.00 0.00 0.00 82 1016.4
20260505040003 10 155 0.0 0.0 0.00 0.00 0.00 82 1016.5
20260505034501 11 151 0.0 3.2 0.00 0.00 0.00 81 1016.5
20260505033104 11 144 1.6 6.4 0.00 0.00 0.00 79 1016.7
20260505031608 11 150 0.0 8.0 0.00 0.00 0.00 78 1016.8
20260505030110 12 150 1.6 4.8 0.00 0.00 0.00 77 1016.8
20260505024606 12 154 3.2 6.4 0.00 0.00 0.00 76 1016.7
20260505023058 12 130 0.0 8.0 0.00 0.00 0.00 75 1016.7
20260505021600 12 135 1.6 4.8 0.00 0.00 0.00 76 1016.6
20260505020057 13 136 0.0 8.0 0.00 0.00 0.00 75 1016.6
20260505014609 13 138 0.0 6.4 0.00 0.00 0.00 75 1016.4
20260505013056 13 138 3.2 8.0 0.00 0.00 0.00 72 1016.1
20260505011606 14 107 0.0 0.0 0.00 0.00 0.00 70 1016.1
20260505010055 15 110 0.0 3.2 0.00 0.00 0.00 68 1016.0
20260505004555 15 96 3.2 8.0 0.00 0.00 0.00 65 1015.9
20260505003054 16 162 1.6 3.2 0.00 0.00 0.00 65 1015.6
20260505001554 17 163 1.6 6.4 0.00 0.00 0.00 62 1015.4
20260505000107 17 360 0.0 11.3 0.00 0.00 0.00 53 1015.5
20260504234552 18 141 1.6 9.7 0.00 0.00 0.00 51 1015.3
20260504233106 19 156 3.2 11.3 0.00 0.00 0.00 52 1015.2
20260504231551 19 179 3.2 9.7 0.00 0.00 0.00 49 1015.2
20260504230050 19 152 1.6 8.0 0.00 0.00 0.00 45 1015.2
20260504224556 20 149 3.2 14.5 0.00 0.00 0.00 45 1015.2
20260504223105 20 159 4.8 11.3 0.00 0.00 0.00 43 1015.2
20260504221547 20 196 6.4 14.5 0.00 0.00 0.00 43 1015.2
20260504220046 20 96 6.4 17.7 0.00 0.00 0.00 46 1015.1
20260504214544 21 205 6.4 19.3 0.00 0.00 0.00 44 1015.1
20260504213054 21 127 9.7 19.3 0.00 0.00 0.00 42 1015.1
20260504211543 21 212 4.8 20.9 0.00 0.00 0.00 45 1015.1
20260504210042 22 196 6.4 19.3 0.00 0.00 0.00 39 1015.1
20260504204547 22 236 8.0 16.1 0.00 0.00 0.00 38 1015.2
20260504203051 22 238 8.0 16.1 0.00 0.00 0.00 42 1015.1
20260504201538 22 323 4.8 8.0 0.00 0.00 0.00 44 1015.3
20260504200035 22 217 4.8 11.3 0.00 0.00 0.00 40 1015.7
20260504194534 22 211 3.2 11.3 0.00 0.00 0.00 43 1015.7
20260504193030 22 318 4.8 14.5 0.00 0.00 0.00 42 1015.9
20260504191528 22 211 4.8 20.9 0.00 0.00 0.00 50 1016.2
20260504190027 22 209 6.4 19.3 0.00 0.00 0.00 43 1016.2
20260504184527 22 195 14.5 20.9 0.00 0.00 0.00 42 1016.3
20260504183024 21 209 6.4 16.1 0.00 0.00 0.00 46 1016.4
20260504181521 21 174 1.6 11.3 0.00 0.00 0.00 46 1016.7
20260504180020 20 141 4.8 17.7 0.00 0.00 0.00 50 1016.9
20260504174518 21 161 6.4 17.7 0.00 0.00 0.00 49 1017.0
20260504173016 20 59 3.2 11.3 0.00 0.00 0.00 46 1017.1
20260504171515 20 38 4.8 12.9 0.00 0.00 0.00 47 1017.3
20260504150103 17 239 4.8 12.9 0.00 0.00 0.00 52 1019.6
20260504090112 3 72 4.8 8.0 0.00 0.00 0.00 92 1019.0
20260504081553 3 71 3.2 6.4 0.00 0.00 0.00 89 1018.7
20260504044541 5 54 0.0 0.0 0.00 0.00 0.00 84 1019.0
20260504043029 5 52 0.0 0.0 0.00 0.00 0.00 83 1018.8